| time (UTC) | temp C | wind direction | speed KPH | gust KPH | rain 1hr cm | rain 24hr cm | rain mn cm | humidity % | barometer mb |
| 20260506092235 | 24 | 95 | 4.8 | 11.3 | 0.00 | 0.00 | 0.00 | 90 | 1009.7 |
| 20260506091732 | 24 | 144 | 12.9 | 19.3 | 0.00 | 0.00 | 0.00 | 90 | 1009.7 |
| 20260506091229 | 24 | 135 | 12.9 | 20.9 | 0.00 | 0.00 | 0.00 | 91 | 1009.7 |
| 20260506090727 | 24 | 121 | 12.9 | 19.3 | 0.00 | 0.00 | 0.00 | 91 | 1009.7 |
| 20260506090224 | 24 | 111 | 14.5 | 17.7 | 0.00 | 0.00 | 0.00 | 90 | 1009.7 |
| 20260506085721 | 24 | 105 | 12.9 | 17.7 | 0.00 | 0.00 | 0.00 | 90 | 1009.7 |
| 20260506085217 | 24 | 114 | 12.9 | 24.1 | 0.00 | 0.00 | 0.00 | 90 | 1009.7 |
| 20260506084714 | 24 | 115 | 14.5 | 17.7 | 0.00 | 0.00 | 0.00 | 90 | 1009.7 |
| 20260506084210 | 24 | 127 | 12.9 | 19.3 | 0.00 | 0.00 | 0.00 | 90 | 1009.7 |
| 20260506083707 | 24 | 135 | 11.3 | 14.5 | 0.00 | 0.00 | 0.00 | 90 | 1009.7 |
| 20260506083205 | 24 | 107 | 14.5 | 20.9 | 0.00 | 0.00 | 0.00 | 90 | 1009.7 |
| 20260506082702 | 24 | 108 | 14.5 | 17.7 | 0.00 | 0.00 | 0.00 | 90 | 1009.7 |
| 20260506082202 | 24 | 133 | 8.0 | 14.5 | 0.00 | 0.00 | 0.00 | 90 | 1009.7 |
| 20260506081700 | 24 | 113 | 14.5 | 17.7 | 0.00 | 0.00 | 0.00 | 90 | 1009.7 |
| 20260506081158 | 24 | 114 | 14.5 | 19.3 | 0.00 | 0.00 | 0.00 | 90 | 1009.7 |
| 20260506080655 | 24 | 110 | 16.1 | 20.9 | 0.00 | 0.00 | 0.00 | 90 | 1009.7 |
| 20260506080152 | 24 | 112 | 12.9 | 17.7 | 0.00 | 0.00 | 0.00 | 89 | 1009.7 |
| 20260506073136 | 24 | 128 | 11.3 | 20.9 | 0.00 | 0.00 | 0.00 | 89 | 1010.1 |
| 20260506072632 | 24 | 120 | 12.9 | 20.9 | 0.00 | 0.00 | 0.00 | 89 | 1010.1 |
| 20260506072130 | 24 | 152 | 9.7 | 17.7 | 0.00 | 0.00 | 0.00 | 89 | 1010.1 |
| 20260506071628 | 24 | 119 | 12.9 | 17.7 | 0.00 | 0.00 | 0.00 | 89 | 1010.4 |
| 20260506071125 | 24 | 128 | 12.9 | 24.1 | 0.00 | 0.00 | 0.00 | 89 | 1010.4 |
| 20260506070622 | 24 | 134 | 16.1 | 24.1 | 0.00 | 0.00 | 0.00 | 89 | 1010.1 |
| 20260506070119 | 24 | 125 | 14.5 | 24.1 | 0.00 | 0.00 | 0.00 | 88 | 1010.4 |
| 20260506062056 | 24 | 96 | 16.1 | 27.4 | 0.00 | 0.00 | 0.00 | 89 | 1010.4 |
| 20260506061552 | 24 | 111 | 12.9 | 17.7 | 0.00 | 0.00 | 0.00 | 89 | 1010.4 |
| 20260506061050 | 24 | 118 | 16.1 | 19.3 | 0.00 | 0.00 | 0.00 | 89 | 1010.1 |
| 20260506060548 | 24 | 102 | 14.5 | 16.1 | 0.00 | 0.00 | 0.00 | 89 | 1010.4 |
| 20260506051017 | 25 | 111 | 12.9 | 19.3 | 0.00 | 0.00 | 0.00 | 88 | 1010.4 |
| 20260506050515 | 25 | 108 | 12.9 | 19.3 | 0.00 | 0.00 | 0.00 | 88 | 1010.4 |
| 20260506045005 | 25 | 120 | 16.1 | 24.1 | 0.00 | 0.00 | 0.00 | 87 | 1010.1 |
| 20260506044504 | 25 | 114 | 17.7 | 27.4 | 0.00 | 0.00 | 0.00 | 87 | 1010.4 |
| 20260506044000 | 25 | 107 | 19.3 | 25.7 | 0.00 | 0.00 | 0.00 | 87 | 1010.4 |
| 20260506043457 | 25 | 107 | 17.7 | 22.5 | 0.00 | 0.00 | 0.00 | 87 | 1010.1 |
| 20260506042955 | 25 | 113 | 17.7 | 25.7 | 0.00 | 0.00 | 0.00 | 87 | 1010.1 |
| 20260506042454 | 25 | 112 | 19.3 | 22.5 | 0.00 | 0.00 | 0.00 | 87 | 1010.1 |
| 20260506041951 | 25 | 127 | 14.5 | 24.1 | 0.00 | 0.00 | 0.00 | 86 | 1010.1 |
| 20260506041450 | 25 | 112 | 17.7 | 20.9 | 0.00 | 0.00 | 0.00 | 86 | 1010.1 |
| 20260506040947 | 25 | 113 | 16.1 | 19.3 | 0.00 | 0.00 | 0.00 | 86 | 1010.1 |
| 20260506040444 | 25 | 109 | 22.5 | 25.7 | 0.00 | 0.00 | 0.00 | 86 | 1009.7 |
| 20260506035940 | 25 | 124 | 19.3 | 24.1 | 0.00 | 0.00 | 0.00 | 85 | 1009.7 |
| 20260506035437 | 25 | 106 | 20.9 | 25.7 | 0.00 | 0.00 | 0.00 | 85 | 1009.7 |
| 20260506034934 | 25 | 118 | 20.9 | 27.4 | 0.00 | 0.00 | 0.00 | 85 | 1009.7 |
| 20260506034431 | 25 | 109 | 20.9 | 24.1 | 0.00 | 0.00 | 0.00 | 85 | 1009.7 |
| 20260506033928 | 25 | 112 | 19.3 | 22.5 | 0.00 | 0.00 | 0.00 | 85 | 1009.7 |
| 20260506033426 | 25 | 104 | 22.5 | 29.0 | 0.00 | 0.00 | 0.00 | 85 | 1009.7 |
| 20260506032922 | 25 | 123 | 19.3 | 29.0 | 0.00 | 0.00 | 0.00 | 84 | 1009.7 |
| 20260506032419 | 25 | 107 | 19.3 | 22.5 | 0.00 | 0.00 | 0.00 | 84 | 1009.7 |
| 20260506031916 | 26 | 106 | 24.1 | 29.0 | 0.00 | 0.00 | 0.00 | 84 | 1009.4 |
| 20260506031413 | 26 | 108 | 20.9 | 29.0 | 0.00 | 0.00 | 0.00 | 84 | 1009.4 |
| 20260506030911 | 26 | 111 | 22.5 | 25.7 | 0.00 | 0.00 | 0.00 | 83 | 1009.4 |
| 20260506030409 | 26 | 109 | 20.9 | 27.4 | 0.00 | 0.00 | 0.00 | 83 | 1009.4 |
| 20260506025905 | 26 | 111 | 19.3 | 22.5 | 0.00 | 0.00 | 0.00 | 83 | 1009.1 |
| 20260506025402 | 26 | 112 | 20.9 | 24.1 | 0.00 | 0.00 | 0.00 | 83 | 1009.1 |
| 20260506024859 | 26 | 106 | 19.3 | 24.1 | 0.00 | 0.00 | 0.00 | 82 | 1009.1 |
| 20260506024356 | 26 | 113 | 24.1 | 27.4 | 0.00 | 0.00 | 0.00 | 82 | 1008.7 |
| 20260506023852 | 26 | 110 | 20.9 | 29.0 | 0.00 | 0.00 | 0.00 | 81 | 1008.7 |
| 20260506023349 | 26 | 112 | 19.3 | 27.4 | 0.00 | 0.00 | 0.00 | 81 | 1008.7 |
| 20260506022845 | 26 | 107 | 19.3 | 27.4 | 0.00 | 0.00 | 0.00 | 80 | 1008.3 |
| 20260506022343 | 26 | 108 | 20.9 | 24.1 | 0.00 | 0.00 | 0.00 | 79 | 1008.3 |
| 20260506021841 | 27 | 108 | 29.0 | 33.8 | 0.00 | 0.00 | 0.00 | 78 | 1008.0 |
| 20260506021338 | 27 | 108 | 27.4 | 33.8 | 0.00 | 0.00 | 0.00 | 77 | 1008.0 |
| 20260506020834 | 27 | 106 | 16.1 | 22.5 | 0.00 | 0.00 | 0.00 | 76 | 1008.0 |
| 20260506020332 | 27 | 108 | 17.7 | 22.5 | 0.00 | 0.00 | 0.00 | 76 | 1008.0 |
| 20260506015830 | 27 | 103 | 20.9 | 24.1 | 0.00 | 0.00 | 0.00 | 75 | 1008.0 |
| 20260506015327 | 27 | 106 | 20.9 | 24.1 | 0.00 | 0.00 | 0.00 | 75 | 1008.0 |
| 20260506014824 | 27 | 116 | 19.3 | 20.9 | 0.00 | 0.00 | 0.00 | 75 | 1007.6 |
| 20260506014320 | 27 | 108 | 20.9 | 27.4 | 0.00 | 0.00 | 0.00 | 75 | 1008.0 |
| 20260506013817 | 27 | 102 | 17.7 | 20.9 | 0.00 | 0.00 | 0.00 | 75 | 1008.0 |
| 20260506013314 | 27 | 107 | 17.7 | 22.5 | 0.00 | 0.00 | 0.00 | 74 | 1008.0 |
| 20260506012811 | 27 | 109 | 20.9 | 25.7 | 0.00 | 0.00 | 0.00 | 74 | 1008.0 |
| 20260506012308 | 27 | 111 | 22.5 | 25.7 | 0.00 | 0.00 | 0.00 | 74 | 1007.6 |
| 20260506011805 | 28 | 104 | 20.9 | 25.7 | 0.00 | 0.00 | 0.00 | 73 | 1008.0 |
| 20260506011301 | 28 | 106 | 16.1 | 19.3 | 0.00 | 0.00 | 0.00 | 73 | 1008.0 |
| 20260506010800 | 28 | 107 | 14.5 | 17.7 | 0.00 | 0.00 | 0.00 | 73 | 1008.0 |
| 20260506010257 | 28 | 108 | 16.1 | 20.9 | 0.00 | 0.00 | 0.00 | 72 | 1008.0 |
| 20260506005754 | 28 | 113 | 12.9 | 16.1 | 0.00 | 0.00 | 0.00 | 72 | 1008.0 |
| 20260506005251 | 28 | 108 | 14.5 | 17.7 | 0.00 | 0.00 | 0.00 | 72 | 1008.0 |
| 20260506004746 | 28 | 104 | 11.3 | 16.1 | 0.00 | 0.00 | 0.00 | 72 | 1008.0 |
| 20260506004245 | 28 | 114 | 9.7 | 14.5 | 0.00 | 0.00 | 0.00 | 72 | 1007.6 |
| 20260506003740 | 28 | 112 | 9.7 | 12.9 | 0.00 | 0.00 | 0.00 | 72 | 1007.6 |
| 20260506003237 | 28 | 120 | 11.3 | 16.1 | 0.00 | 0.00 | 0.00 | 72 | 1007.6 |
| 20260506002733 | 28 | 108 | 14.5 | 17.7 | 0.00 | 0.00 | 0.00 | 72 | 1007.6 |
| 20260506002229 | 28 | 115 | 12.9 | 14.5 | 0.00 | 0.00 | 0.00 | 72 | 1007.6 |
| 20260506001725 | 28 | 102 | 14.5 | 17.7 | 0.00 | 0.00 | 0.00 | 71 | 1007.6 |
| 20260506001223 | 28 | 126 | 11.3 | 16.1 | 0.00 | 0.00 | 0.00 | 71 | 1007.3 |
| 20260506000719 | 28 | 102 | 16.1 | 19.3 | 0.00 | 0.00 | 0.00 | 71 | 1007.6 |
| 20260506000219 | 28 | 119 | 11.3 | 14.5 | 0.00 | 0.00 | 0.00 | 71 | 1007.3 |
| 20260505235714 | 28 | 152 | 11.3 | 19.3 | 0.00 | 0.00 | 0.00 | 71 | 1007.3 |
| 20260505235212 | 28 | 110 | 16.1 | 20.9 | 0.00 | 0.00 | 0.00 | 71 | 1007.3 |
| 20260505234708 | 28 | 107 | 22.5 | 29.0 | 0.00 | 0.00 | 0.00 | 70 | 1007.3 |
| 20260505234206 | 28 | 104 | 19.3 | 24.1 | 0.00 | 0.00 | 0.00 | 70 | 1007.3 |
| 20260505233702 | 28 | 107 | 16.1 | 22.5 | 0.00 | 0.00 | 0.00 | 70 | 1007.3 |
| 20260505233200 | 28 | 108 | 17.7 | 20.9 | 0.00 | 0.00 | 0.00 | 70 | 1007.3 |
| 20260505232657 | 28 | 161 | 14.5 | 20.9 | 0.00 | 0.00 | 0.00 | 69 | 1007.3 |
| 20260505232155 | 28 | 103 | 14.5 | 19.3 | 0.00 | 0.00 | 0.00 | 69 | 1007.3 |
| 20260505231651 | 28 | 115 | 11.3 | 16.1 | 0.00 | 0.00 | 0.00 | 69 | 1007.3 |
| 20260505231150 | 28 | 147 | 16.1 | 25.7 | 0.00 | 0.00 | 0.00 | 69 | 1007.3 |
| 20260505230648 | 28 | 133 | 19.3 | 29.0 | 0.00 | 0.00 | 0.00 | 69 | 1007.3 |
| 20260505230144 | 28 | 115 | 20.9 | 27.4 | 0.00 | 0.00 | 0.00 | 69 | 1006.9 |
| 20260505225640 | 28 | 133 | 19.3 | 24.1 | 0.00 | 0.00 | 0.00 | 69 | 1006.9 |
| 20260505225137 | 28 | 142 | 11.3 | 20.9 | 0.00 | 0.00 | 0.00 | 68 | 1007.3 |
| 20260505224633 | 28 | 142 | 6.4 | 12.9 | 0.00 | 0.00 | 0.00 | 69 | 1006.9 |
| 20260505224131 | 28 | 117 | 16.1 | 24.1 | 0.00 | 0.00 | 0.00 | 68 | 1006.9 |
| 20260505223628 | 29 | 128 | 8.0 | 17.7 | 0.00 | 0.00 | 0.00 | 67 | 1006.9 |
| 20260505223124 | 28 | 92 | 16.1 | 24.1 | 0.00 | 0.00 | 0.00 | 67 | 1007.3 |
| 20260505222621 | 28 | 125 | 20.9 | 27.4 | 0.00 | 0.00 | 0.00 | 68 | 1006.9 |
| 20260505222117 | 28 | 128 | 19.3 | 33.8 | 0.00 | 0.00 | 0.00 | 67 | 1006.9 |
| 20260505221614 | 28 | 141 | 14.5 | 25.7 | 0.00 | 0.00 | 0.00 | 68 | 1006.9 |
| 20260505221110 | 29 | 107 | 20.9 | 29.0 | 0.00 | 0.00 | 0.00 | 67 | 1007.3 |
| 20260505220608 | 29 | 107 | 12.9 | 24.1 | 0.00 | 0.00 | 0.00 | 66 | 1006.9 |
| 20260505220106 | 28 | 116 | 20.9 | 27.4 | 0.00 | 0.00 | 0.00 | 68 | 1007.3 |
| 20260505215603 | 28 | 120 | 14.5 | 20.9 | 0.00 | 0.00 | 0.00 | 68 | 1007.3 |
| 20260505215101 | 28 | 112 | 19.3 | 27.4 | 0.00 | 0.00 | 0.00 | 69 | 1007.3 |
| 20260505214559 | 28 | 113 | 20.9 | 25.7 | 0.00 | 0.00 | 0.00 | 68 | 1007.6 |
| 20260505214056 | 28 | 119 | 17.7 | 27.4 | 0.00 | 0.00 | 0.00 | 68 | 1007.6 |
| 20260505213553 | 29 | 127 | 19.3 | 30.6 | 0.00 | 0.00 | 0.00 | 66 | 1007.3 |
| 20260505213049 | 30 | 138 | 12.9 | 22.5 | 0.00 | 0.00 | 0.00 | 64 | 1007.6 |
| 20260505212546 | 30 | 157 | 9.7 | 17.7 | 0.00 | 0.00 | 0.00 | 65 | 1007.6 |
| 20260505212044 | 28 | 153 | 14.5 | 22.5 | 0.00 | 0.00 | 0.00 | 66 | 1007.6 |
| 20260505211540 | 28 | 138 | 17.7 | 29.0 | 0.00 | 0.00 | 0.00 | 67 | 1007.6 |
| 20260505211037 | 29 | 110 | 24.1 | 33.8 | 0.00 | 0.00 | 0.00 | 65 | 1007.6 |
| 20260505210534 | 28 | 118 | 20.9 | 27.4 | 0.00 | 0.00 | 0.00 | 67 | 1007.6 |
| 20260505210031 | 28 | 135 | 16.1 | 24.1 | 0.00 | 0.00 | 0.00 | 66 | 1007.6 |
| 20260505205529 | 28 | 116 | 16.1 | 24.1 | 0.00 | 0.00 | 0.00 | 66 | 1008.0 |
| 20260505205026 | 28 | 84 | 11.3 | 25.7 | 0.00 | 0.00 | 0.00 | 68 | 1008.0 |
| 20260505204523 | 28 | 145 | 14.5 | 24.1 | 0.00 | 0.00 | 0.00 | 68 | 1008.0 |
| 20260505204021 | 28 | 117 | 11.3 | 22.5 | 0.00 | 0.00 | 0.00 | 69 | 1008.3 |
| 20260505203517 | 28 | 119 | 11.3 | 17.7 | 0.00 | 0.00 | 0.00 | 70 | 1008.7 |
| 20260505203014 | 28 | 152 | 16.1 | 25.7 | 0.00 | 0.00 | 0.00 | 70 | 1008.7 |
| 20260505202510 | 28 | 127 | 3.2 | 8.0 | 0.00 | 0.00 | 0.00 | 71 | 1008.7 |
| 20260505202006 | 27 | 135 | 11.3 | 17.7 | 0.00 | 0.00 | 0.00 | 72 | 1009.1 |
| 20260505201504 | 27 | 173 | 11.3 | 20.9 | 0.00 | 0.00 | 0.00 | 72 | 1009.1 |
| 20260505201001 | 27 | 124 | 16.1 | 24.1 | 0.00 | 0.00 | 0.00 | 72 | 1009.1 |
| 20260505200459 | 27 | 150 | 9.7 | 20.9 | 0.00 | 0.00 | 0.00 | 72 | 1009.1 |
| 20260505195954 | 27 | 183 | 6.4 | 11.3 | 0.00 | 0.00 | 0.00 | 72 | 1009.1 |
| 20260505195451 | 27 | 182 | 11.3 | 17.7 | 0.00 | 0.00 | 0.00 | 73 | 1009.1 |
| 20260505194949 | 27 | 132 | 19.3 | 30.6 | 0.00 | 0.00 | 0.00 | 73 | 1009.1 |
| 20260505194446 | 27 | 165 | 6.4 | 17.7 | 0.00 | 0.00 | 0.00 | 72 | 1009.4 |
| 20260505193946 | 27 | 114 | 16.1 | 29.0 | 0.00 | 0.00 | 0.00 | 72 | 1009.1 |
| 20260505193444 | 27 | 89 | 11.3 | 20.9 | 0.00 | 0.00 | 0.00 | 72 | 1009.1 |
| 20260505192941 | 27 | 142 | 19.3 | 30.6 | 0.00 | 0.00 | 0.00 | 72 | 1009.1 |
| 20260505192440 | 27 | 142 | 17.7 | 25.7 | 0.00 | 0.00 | 0.00 | 72 | 1009.1 |
| 20260505191937 | 27 | 105 | 11.3 | 20.9 | 0.00 | 0.00 | 0.00 | 72 | 1009.4 |
| 20260505191435 | 27 | 151 | 11.3 | 19.3 | 0.00 | 0.00 | 0.00 | 74 | 1009.4 |
| 20260505190932 | 27 | 135 | 16.1 | 22.5 | 0.00 | 0.00 | 0.00 | 74 | 1009.4 |
| 20260505190427 | 26 | 159 | 11.3 | 22.5 | 0.00 | 0.00 | 0.00 | 74 | 1009.4 |
| 20260505185922 | 27 | 233 | 6.4 | 19.3 | 0.00 | 0.00 | 0.00 | 74 | 1009.7 |
| 20260505185420 | 26 | 126 | 14.5 | 24.1 | 0.00 | 0.00 | 0.00 | 75 | 1009.7 |
| 20260505184916 | 26 | 182 | 12.9 | 20.9 | 0.00 | 0.00 | 0.00 | 74 | 1009.7 |
| 20260505184413 | 26 | 136 | 12.9 | 20.9 | 0.00 | 0.00 | 0.00 | 75 | 1009.7 |
| 20260505183910 | 26 | 119 | 16.1 | 22.5 | 0.00 | 0.00 | 0.00 | 77 | 1009.7 |
| 20260505183407 | 26 | 168 | 9.7 | 17.7 | 0.00 | 0.00 | 0.00 | 77 | 1010.1 |
| 20260505182903 | 26 | 166 | 8.0 | 16.1 | 0.00 | 0.00 | 0.00 | 76 | 1010.1 |
| 20260505182400 | 26 | 141 | 11.3 | 24.1 | 0.00 | 0.00 | 0.00 | 76 | 1010.1 |
| 20260505181857 | 26 | 349 | 1.6 | 6.4 | 0.00 | 0.00 | 0.00 | 76 | 1010.1 |
| 20260505181354 | 26 | 125 | 17.7 | 25.7 | 0.00 | 0.00 | 0.00 | 78 | 1010.1 |
| 20260505180851 | 25 | 213 | 12.9 | 17.7 | 0.00 | 0.00 | 0.00 | 79 | 1010.1 |
| 20260505180347 | 25 | 145 | 9.7 | 17.7 | 0.00 | 0.00 | 0.00 | 78 | 1010.4 |
| 20260505175844 | 25 | 180 | 6.4 | 12.9 | 0.00 | 0.00 | 0.00 | 80 | 1010.4 |
| 20260505175340 | 25 | 144 | 16.1 | 22.5 | 0.00 | 0.00 | 0.00 | 80 | 1010.4 |
| 20260505174837 | 25 | 180 | 12.9 | 19.3 | 0.00 | 0.00 | 0.00 | 81 | 1010.8 |
| 20260505174335 | 25 | 248 | 8.0 | 17.7 | 0.00 | 0.00 | 0.00 | 81 | 1010.8 |
| 20260505173830 | 24 | 173 | 3.2 | 12.9 | 0.00 | 0.00 | 0.00 | 82 | 1010.8 |
| 20260505173327 | 24 | 202 | 11.3 | 20.9 | 0.00 | 0.00 | 0.00 | 82 | 1010.8 |
| 20260505172824 | 24 | 205 | 14.5 | 20.9 | 0.00 | 0.00 | 0.00 | 83 | 1010.8 |
| 20260505172322 | 24 | 178 | 14.5 | 19.3 | 0.00 | 0.00 | 0.00 | 82 | 1010.8 |
| 20260505171821 | 24 | 191 | 8.0 | 12.9 | 0.00 | 0.00 | 0.00 | 83 | 1010.8 |
| 20260505171319 | 24 | 175 | 9.7 | 17.7 | 0.00 | 0.00 | 0.00 | 83 | 1010.8 |
| 20260505170815 | 24 | 175 | 9.7 | 17.7 | 0.00 | 0.00 | 0.00 | 83 | 1010.8 |
| 20260505170312 | 24 | 134 | 6.4 | 14.5 | 0.00 | 0.00 | 0.00 | 83 | 1010.8 |
| 20260505165807 | 23 | 220 | 17.7 | 24.1 | 0.00 | 0.00 | 0.00 | 83 | 1010.8 |
| 20260505165306 | 24 | 187 | 9.7 | 16.1 | 0.00 | 0.00 | 0.00 | 82 | 1010.8 |
| 20260505164759 | 24 | 178 | 8.0 | 17.7 | 0.00 | 0.00 | 0.00 | 82 | 1010.8 |
| 20260505164256 | 23 | 142 | 6.4 | 12.9 | 0.00 | 0.00 | 0.00 | 83 | 1010.8 |
| 20260505163754 | 23 | 177 | 17.7 | 24.1 | 0.00 | 0.00 | 0.00 | 83 | 1010.8 |
| 20260505163253 | 23 | 138 | 8.0 | 20.9 | 0.00 | 0.00 | 0.00 | 83 | 1010.8 |
| 20260505162750 | 23 | 132 | 9.7 | 14.5 | 0.00 | 0.00 | 0.00 | 85 | 1010.8 |
| 20260505162246 | 23 | 184 | 9.7 | 16.1 | 0.00 | 0.00 | 0.00 | 86 | 1011.1 |
| 20260505161744 | 23 | 210 | 16.1 | 22.5 | 0.00 | 0.00 | 0.00 | 86 | 1011.1 |
| 20260505161241 | 23 | 286 | 1.6 | 3.2 | 0.00 | 0.00 | 0.00 | 87 | 1010.8 |
| 20260505160738 | 22 | 216 | 9.7 | 16.1 | 0.00 | 0.00 | 0.00 | 87 | 1010.8 |
| 20260505160236 | 22 | 202 | 14.5 | 17.7 | 0.00 | 0.00 | 0.00 | 87 | 1011.1 |
| 20260505153215 | 22 | 182 | 8.0 | 19.3 | 0.00 | 0.00 | 0.00 | 88 | 1011.1 |
| 20260505152712 | 22 | 137 | 12.9 | 22.5 | 0.00 | 0.00 | 0.00 | 87 | 1011.1 |
| 20260505152208 | 22 | 180 | 4.8 | 12.9 | 0.00 | 0.00 | 0.00 | 88 | 1011.1 |
| 20260505151703 | 22 | 164 | 9.7 | 14.5 | 0.00 | 0.00 | 0.00 | 88 | 1011.1 |
| 20260505151201 | 22 | 176 | 14.5 | 22.5 | 0.00 | 0.00 | 0.00 | 88 | 1010.8 |
| 20260505150657 | 22 | 125 | 12.9 | 24.1 | 0.00 | 0.00 | 0.00 | 89 | 1010.8 |
| 20260505150155 | 22 | 188 | 8.0 | 14.5 | 0.00 | 0.00 | 0.00 | 89 | 1010.8 |
| 20260505140628 | 22 | 165 | 12.9 | 24.1 | 0.00 | 0.00 | 0.00 | 90 | 1010.8 |
| 20260505140125 | 22 | 169 | 6.4 | 12.9 | 0.00 | 0.00 | 0.00 | 90 | 1010.8 |
| 20260505124543 | 21 | 133 | 11.3 | 17.7 | 0.00 | 0.00 | 0.00 | 90 | 1009.7 |
| 20260505124039 | 21 | 129 | 9.7 | 14.5 | 0.00 | 0.00 | 0.00 | 91 | 1009.7 |
| 20260505123536 | 21 | 180 | 9.7 | 19.3 | 0.00 | 0.00 | 0.00 | 90 | 1009.7 |
| 20260505123032 | 21 | 142 | 12.9 | 19.3 | 0.00 | 0.00 | 0.00 | 91 | 1009.7 |
| 20260505122529 | 21 | 171 | 8.0 | 14.5 | 0.00 | 0.00 | 0.00 | 91 | 1009.7 |
| 20260505122026 | 21 | 104 | 14.5 | 19.3 | 0.00 | 0.00 | 0.00 | 91 | 1009.7 |
| 20260505121523 | 21 | 140 | 16.1 | 22.5 | 0.00 | 0.00 | 0.00 | 91 | 1009.4 |
| 20260505121019 | 21 | 153 | 12.9 | 20.9 | 0.00 | 0.00 | 0.00 | 91 | 1009.7 |
| 20260505120516 | 21 | 170 | 12.9 | 24.1 | 0.00 | 0.00 | 0.00 | 90 | 1009.7 |
| 20260505120011 | 21 | 113 | 11.3 | 20.9 | 0.00 | 0.00 | 0.00 | 90 | 1009.4 |
| 20260505115506 | 21 | 157 | 12.9 | 20.9 | 0.00 | 0.00 | 0.00 | 90 | 1009.7 |
| 20260505115004 | 21 | 180 | 8.0 | 14.5 | 0.00 | 0.00 | 0.00 | 90 | 1009.7 |
| 20260505114500 | 21 | 159 | 14.5 | 17.7 | 0.00 | 0.00 | 0.00 | 90 | 1009.4 |
| 20260505113957 | 21 | 122 | 14.5 | 24.1 | 0.00 | 0.00 | 0.00 | 89 | 1009.4 |
| 20260505113454 | 21 | 116 | 12.9 | 27.4 | 0.00 | 0.00 | 0.00 | 89 | 1009.4 |
| 20260505112949 | 21 | 150 | 12.9 | 19.3 | 0.00 | 0.00 | 0.00 | 89 | 1009.4 |
| 20260505112447 | 21 | 108 | 11.3 | 20.9 | 0.00 | 0.00 | 0.00 | 89 | 1009.7 |
| 20260505111944 | 21 | 140 | 8.0 | 22.5 | 0.00 | 0.00 | 0.00 | 89 | 1009.4 |
| 20260505111438 | 21 | 177 | 11.3 | 20.9 | 0.00 | 0.00 | 0.00 | 89 | 1009.7 |
| 20260505110934 | 21 | 169 | 12.9 | 24.1 | 0.00 | 0.00 | 0.00 | 88 | 1009.7 |
| 20260505110431 | 21 | 171 | 12.9 | 20.9 | 0.00 | 0.00 | 0.00 | 88 | 1009.7 |
| 20260505101902 | 21 | 134 | 9.7 | 20.9 | 0.00 | 0.00 | 0.00 | 89 | 1009.7 |
| 20260505101357 | 21 | 128 | 20.9 | 29.0 | 0.00 | 0.00 | 0.00 | 88 | 1009.7 |
| 20260505100853 | 21 | 121 | 14.5 | 22.5 | 0.00 | 0.00 | 0.00 | 88 | 1009.7 |
| 20260505100350 | 21 | 130 | 14.5 | 22.5 | 0.00 | 0.00 | 0.00 | 88 | 1009.7 |
| 20260505095845 | 21 | 142 | 9.7 | 17.7 | 0.00 | 0.00 | 0.00 | 88 | 1009.7 |
| 20260505095343 | 21 | 116 | 19.3 | 27.4 | 0.00 | 0.00 | 0.00 | 88 | 1009.7 |
| 20260505094839 | 21 | 156 | 12.9 | 22.5 | 0.00 | 0.00 | 0.00 | 88 | 1009.7 |
| 20260505094336 | 21 | 120 | 17.7 | 22.5 | 0.00 | 0.00 | 0.00 | 88 | 1009.7 |
| 20260505093831 | 21 | 160 | 9.7 | 16.1 | 0.00 | 0.00 | 0.00 | 88 | 1009.7 |
| 20260505093330 | 21 | 60 | 6.4 | 11.3 | 0.00 | 0.00 | 0.00 | 88 | 1009.7 |
| 20260505092826 | 21 | 132 | 12.9 | 20.9 | 0.00 | 0.00 | 0.00 | 87 | 1009.7 |